Year,Month,Day,Hour,Minute,Value (Times are PST for temperature in C)
2015,12,12,00,00,1.10
2015,12,12,00,01,1.10
2015,12,12,00,02,1.10
2015,12,12,00,03,1.10
2015,12,12,00,04,1.10
2015,12,12,00,05,1.10
2015,12,12,00,06,1.10
2015,12,12,00,07,1.10
2015,12,12,00,08,1.10
2015,12,12,00,09,1.10
2015,12,12,00,10,1.00
2015,12,12,00,11,1.00
2015,12,12,00,12,1.00
2015,12,12,00,13,1.00
2015,12,12,00,14,1.00
2015,12,12,00,15,1.00
2015,12,12,00,16,0.90
2015,12,12,00,17,0.90
2015,12,12,00,18,0.90
2015,12,12,00,19,0.90
2015,12,12,00,20,0.90
2015,12,12,00,21,0.90
2015,12,12,00,22,0.90
2015,12,12,00,23,0.90
2015,12,12,00,24,0.90
2015,12,12,00,25,0.90
2015,12,12,00,26,0.90
2015,12,12,00,27,1.00
2015,12,12,00,28,1.00
2015,12,12,00,29,1.00
2015,12,12,00,30,1.00
2015,12,12,00,31,1.00
2015,12,12,00,32,1.00
2015,12,12,00,33,1.00
2015,12,12,00,34,1.00
2015,12,12,00,35,1.00
2015,12,12,00,36,1.00
2015,12,12,00,37,1.00
2015,12,12,00,38,0.90
2015,12,12,00,39,0.90
2015,12,12,00,40,0.90
2015,12,12,00,41,0.90
2015,12,12,00,42,0.90
2015,12,12,00,43,0.90
2015,12,12,00,44,0.90
2015,12,12,00,45,0.90
2015,12,12,00,46,0.90
2015,12,12,00,47,0.90
2015,12,12,00,48,0.90
2015,12,12,00,49,0.90
2015,12,12,00,50,0.80
2015,12,12,00,51,0.80
2015,12,12,00,52,0.80
2015,12,12,00,53,0.70
2015,12,12,00,54,0.70
2015,12,12,00,55,0.70
2015,12,12,00,56,0.70
2015,12,12,00,57,0.60
2015,12,12,00,58,0.60
2015,12,12,00,59,0.60
2015,12,12,01,00,0.60
2015,12,12,01,01,0.60
2015,12,12,01,02,0.60
2015,12,12,01,03,0.60
2015,12,12,01,04,0.60
2015,12,12,01,05,0.60
2015,12,12,01,06,0.60
2015,12,12,01,07,0.60
2015,12,12,01,08,0.60
2015,12,12,01,09,0.60
2015,12,12,01,10,0.60
2015,12,12,01,11,0.60
2015,12,12,01,12,0.60
2015,12,12,01,13,0.70
2015,12,12,01,14,0.70
2015,12,12,01,15,0.70
2015,12,12,01,16,0.70
2015,12,12,01,17,0.70
2015,12,12,01,18,0.70
2015,12,12,01,19,0.80
2015,12,12,01,20,0.80
2015,12,12,01,21,0.80
2015,12,12,01,22,0.80
2015,12,12,01,23,0.80
2015,12,12,01,24,0.80
2015,12,12,01,25,0.80
2015,12,12,01,26,0.80
2015,12,12,01,27,0.70
2015,12,12,01,28,0.70
2015,12,12,01,29,0.70
2015,12,12,01,30,0.60
2015,12,12,01,31,0.60
2015,12,12,01,32,0.50
2015,12,12,01,33,0.50
2015,12,12,01,34,0.50
2015,12,12,01,35,0.50
2015,12,12,01,36,0.50
2015,12,12,01,37,0.50
2015,12,12,01,38,0.40
2015,12,12,01,39,0.40
2015,12,12,01,40,0.50
2015,12,12,01,41,0.50
2015,12,12,01,42,0.50
2015,12,12,01,43,0.50
2015,12,12,01,44,0.50
2015,12,12,01,45,0.50
2015,12,12,01,46,0.60
2015,12,12,01,47,0.60
2015,12,12,01,48,0.60
2015,12,12,01,49,0.60
2015,12,12,01,50,0.60
2015,12,12,01,51,0.70
2015,12,12,01,52,0.70
2015,12,12,01,53,0.70
2015,12,12,01,54,0.70
2015,12,12,01,55,0.70
2015,12,12,01,56,0.70
2015,12,12,01,57,0.70
2015,12,12,01,58,0.70
2015,12,12,01,59,0.70
2015,12,12,02,00,0.70
2015,12,12,02,01,0.70
2015,12,12,02,02,0.70
2015,12,12,02,03,0.70
2015,12,12,02,04,0.70
2015,12,12,02,05,0.70
2015,12,12,02,06,0.60
2015,12,12,02,07,0.60
2015,12,12,02,08,0.60
2015,12,12,02,09,0.60
2015,12,12,02,10,0.60
2015,12,12,02,11,0.60
2015,12,12,02,12,0.60
2015,12,12,02,13,0.60
2015,12,12,02,14,0.60
2015,12,12,02,15,0.60
2015,12,12,02,16,0.60
2015,12,12,02,17,0.60
2015,12,12,02,18,0.60
2015,12,12,02,19,0.60
2015,12,12,02,20,0.70
2015,12,12,02,21,0.70
2015,12,12,02,22,0.70
2015,12,12,02,23,0.70
2015,12,12,02,24,0.70
2015,12,12,02,25,0.70
2015,12,12,02,26,0.70
2015,12,12,02,27,0.70
2015,12,12,02,28,0.60
2015,12,12,02,29,0.60
2015,12,12,02,30,0.60
2015,12,12,02,31,0.60
2015,12,12,02,32,0.60
2015,12,12,02,33,0.60
2015,12,12,02,34,0.60
2015,12,12,02,35,0.60
2015,12,12,02,36,0.60
2015,12,12,02,37,0.60
2015,12,12,02,38,0.60
2015,12,12,02,39,0.60
2015,12,12,02,40,0.60
2015,12,12,02,41,0.60
2015,12,12,02,42,0.60
2015,12,12,02,43,0.60
2015,12,12,02,44,0.60
2015,12,12,02,45,0.60
2015,12,12,02,46,0.60
2015,12,12,02,47,0.60
2015,12,12,02,48,0.60
2015,12,12,02,49,0.60
2015,12,12,02,50,0.60
2015,12,12,02,51,0.60
2015,12,12,02,52,0.60
2015,12,12,02,53,0.60
2015,12,12,02,54,0.70
2015,12,12,02,55,0.60
2015,12,12,02,56,0.60
2015,12,12,02,57,0.60
2015,12,12,02,58,0.60
2015,12,12,02,59,0.60
2015,12,12,03,00,0.60
2015,12,12,03,01,0.70
2015,12,12,03,02,0.70
2015,12,12,03,03,0.70
2015,12,12,03,04,0.80
2015,12,12,03,05,0.80
2015,12,12,03,06,0.80
2015,12,12,03,07,0.80
2015,12,12,03,08,0.80
2015,12,12,03,09,0.80
2015,12,12,03,10,0.80
2015,12,12,03,11,0.80
2015,12,12,03,12,0.80
2015,12,12,03,13,0.80
2015,12,12,03,14,0.80
2015,12,12,03,15,0.80
2015,12,12,03,16,0.80
2015,12,12,03,17,0.80
2015,12,12,03,18,0.80
2015,12,12,03,19,0.80
2015,12,12,03,20,0.80
2015,12,12,03,21,0.80
2015,12,12,03,22,0.80
2015,12,12,03,23,0.80
2015,12,12,03,24,0.70
2015,12,12,03,25,0.70
2015,12,12,03,26,0.70
2015,12,12,03,27,0.70
2015,12,12,03,28,0.70
2015,12,12,03,29,0.70
2015,12,12,03,30,0.70
2015,12,12,03,31,0.70
2015,12,12,03,32,0.70
2015,12,12,03,33,0.80
2015,12,12,03,34,0.80
2015,12,12,03,35,0.80
2015,12,12,03,36,0.80
2015,12,12,03,37,0.80
2015,12,12,03,38,0.80
2015,12,12,03,39,0.80
2015,12,12,03,40,0.80
2015,12,12,03,41,0.80
2015,12,12,03,42,0.90
2015,12,12,03,43,0.90
2015,12,12,03,44,0.90
2015,12,12,03,45,0.90
2015,12,12,03,46,0.90
2015,12,12,03,47,1.00
2015,12,12,03,48,1.00
2015,12,12,03,49,1.00
2015,12,12,03,50,1.10
2015,12,12,03,51,1.10
2015,12,12,03,52,1.20
2015,12,12,03,53,1.20
2015,12,12,03,54,1.20
2015,12,12,03,55,1.20
2015,12,12,03,56,1.20
2015,12,12,03,57,1.30
2015,12,12,03,58,1.30
2015,12,12,03,59,1.30
2015,12,12,04,00,1.20
2015,12,12,04,01,1.20
2015,12,12,04,02,1.20
2015,12,12,04,03,1.20
2015,12,12,04,04,1.20
2015,12,12,04,05,1.20
2015,12,12,04,06,1.20
2015,12,12,04,07,1.20
2015,12,12,04,08,1.20
2015,12,12,04,09,1.20
2015,12,12,04,10,1.20
2015,12,12,04,11,1.20
2015,12,12,04,12,1.20
2015,12,12,04,13,1.20
2015,12,12,04,14,1.20
2015,12,12,04,15,1.20
2015,12,12,04,16,1.30
2015,12,12,04,17,1.30
2015,12,12,04,18,1.30
2015,12,12,04,19,1.30
2015,12,12,04,20,1.30
2015,12,12,04,21,1.30
2015,12,12,04,22,1.30
2015,12,12,04,23,1.30
2015,12,12,04,24,1.30
2015,12,12,04,25,1.30
2015,12,12,04,26,1.30
2015,12,12,04,27,1.30
2015,12,12,04,28,1.30
2015,12,12,04,29,1.30
2015,12,12,04,30,1.30
2015,12,12,04,31,1.30
2015,12,12,04,32,1.40
2015,12,12,04,33,1.40
2015,12,12,04,34,1.40
2015,12,12,04,35,1.40
2015,12,12,04,36,1.40
2015,12,12,04,37,1.40
2015,12,12,04,38,1.40
2015,12,12,04,39,1.50
2015,12,12,04,40,1.50
2015,12,12,04,41,1.50
2015,12,12,04,42,1.50
2015,12,12,04,43,1.50
2015,12,12,04,44,1.50
2015,12,12,04,45,1.60
2015,12,12,04,46,1.60
2015,12,12,04,47,1.60
2015,12,12,04,48,1.60
2015,12,12,04,49,1.60
2015,12,12,04,50,1.70
2015,12,12,04,51,1.70
2015,12,12,04,52,1.70
2015,12,12,04,53,1.70
2015,12,12,04,54,1.80
2015,12,12,04,55,1.80
2015,12,12,04,56,1.80
2015,12,12,04,57,1.80
2015,12,12,04,58,1.80
2015,12,12,04,59,1.80
2015,12,12,05,00,1.80
2015,12,12,05,01,1.90
2015,12,12,05,02,1.90
2015,12,12,05,03,1.90
2015,12,12,05,04,1.90
2015,12,12,05,05,1.90
2015,12,12,05,06,1.90
2015,12,12,05,07,1.90
2015,12,12,05,08,1.90
2015,12,12,05,09,1.90
2015,12,12,05,10,1.90
2015,12,12,05,11,1.90
2015,12,12,05,12,1.90
2015,12,12,05,13,1.90
2015,12,12,05,14,1.90
2015,12,12,05,15,2.00
2015,12,12,05,16,2.00
2015,12,12,05,17,2.10
2015,12,12,05,18,2.10
2015,12,12,05,19,2.20
2015,12,12,05,20,2.20
2015,12,12,05,21,2.20
2015,12,12,05,22,2.30
2015,12,12,05,23,2.30
2015,12,12,05,24,2.30
2015,12,12,05,25,2.30
2015,12,12,05,26,2.30
2015,12,12,05,27,2.30
2015,12,12,05,28,2.30
2015,12,12,05,29,2.40
2015,12,12,05,30,2.40
2015,12,12,05,31,2.40
2015,12,12,05,32,2.40
2015,12,12,05,33,2.40
2015,12,12,05,34,2.50
2015,12,12,05,35,2.50
2015,12,12,05,36,2.50
2015,12,12,05,37,2.50
2015,12,12,05,38,2.60
2015,12,12,05,39,2.60
2015,12,12,05,40,2.60
2015,12,12,05,41,2.60
2015,12,12,05,42,2.60
2015,12,12,05,43,2.60
2015,12,12,05,44,2.60
2015,12,12,05,45,2.60
2015,12,12,05,46,2.70
2015,12,12,05,47,2.70
2015,12,12,05,48,2.80
2015,12,12,05,49,2.80
2015,12,12,05,50,2.80
2015,12,12,05,51,2.80
2015,12,12,05,52,2.80
2015,12,12,05,53,2.80
2015,12,12,05,54,2.80
2015,12,12,05,55,2.80
2015,12,12,05,56,2.80
2015,12,12,05,57,2.80
2015,12,12,05,58,2.80
2015,12,12,05,59,2.90
2015,12,12,06,00,2.90
2015,12,12,06,01,2.90
2015,12,12,06,02,3.00
2015,12,12,06,03,3.00
2015,12,12,06,04,3.10
2015,12,12,06,05,3.10
2015,12,12,06,06,3.10
2015,12,12,06,07,3.20
2015,12,12,06,08,3.20
2015,12,12,06,09,3.20
2015,12,12,06,10,3.20
2015,12,12,06,11,3.20
2015,12,12,06,12,3.20
2015,12,12,06,13,3.30
2015,12,12,06,14,3.30
2015,12,12,06,15,3.30
2015,12,12,06,16,3.30
2015,12,12,06,17,3.40
2015,12,12,06,18,3.40
2015,12,12,06,19,3.40
2015,12,12,06,20,3.50
2015,12,12,06,21,3.50
2015,12,12,06,22,3.60
2015,12,12,06,23,3.80
2015,12,12,06,24,3.90
2015,12,12,06,25,4.00
2015,12,12,06,26,4.10
2015,12,12,06,27,4.10
2015,12,12,06,28,4.20
2015,12,12,06,29,4.20
2015,12,12,06,30,4.30
2015,12,12,06,31,4.30
2015,12,12,06,32,4.40
2015,12,12,06,33,4.50
2015,12,12,06,34,4.50
2015,12,12,06,35,4.60
2015,12,12,06,36,4.70
2015,12,12,06,37,4.70
2015,12,12,06,38,4.80
2015,12,12,06,39,4.90
2015,12,12,06,40,5.00
2015,12,12,06,41,5.00
2015,12,12,06,42,5.10
2015,12,12,06,43,5.10
2015,12,12,06,44,5.10
2015,12,12,06,45,5.20
2015,12,12,06,46,5.20
2015,12,12,06,47,5.20
2015,12,12,06,48,5.30
2015,12,12,06,49,5.30
2015,12,12,06,50,5.30
2015,12,12,06,51,5.30
2015,12,12,06,52,5.30
2015,12,12,06,53,5.30
2015,12,12,06,54,5.30
2015,12,12,06,55,5.30
2015,12,12,06,56,5.30
2015,12,12,06,57,5.30
2015,12,12,06,58,5.30
2015,12,12,06,59,5.30
2015,12,12,07,00,5.30
2015,12,12,07,01,5.30
2015,12,12,07,02,5.30
2015,12,12,07,03,5.30
2015,12,12,07,04,5.30
2015,12,12,07,05,5.40
2015,12,12,07,06,5.30
2015,12,12,07,07,5.30
2015,12,12,07,08,5.30
2015,12,12,07,09,5.30
2015,12,12,07,10,5.30
2015,12,12,07,11,5.30
2015,12,12,07,12,5.30
2015,12,12,07,13,5.30
2015,12,12,07,14,5.30
2015,12,12,07,15,5.30
2015,12,12,07,16,5.30
2015,12,12,07,17,5.30
2015,12,12,07,18,5.30
2015,12,12,07,19,5.30
2015,12,12,07,20,5.30
2015,12,12,07,21,5.30
2015,12,12,07,22,5.30
2015,12,12,07,23,5.30
2015,12,12,07,24,5.30
2015,12,12,07,25,5.30
2015,12,12,07,26,5.30
2015,12,12,07,27,5.30
2015,12,12,07,28,5.30
2015,12,12,07,29,5.30
2015,12,12,07,30,5.30
2015,12,12,07,31,5.30
2015,12,12,07,32,5.30
2015,12,12,07,33,5.30
2015,12,12,07,34,5.30
2015,12,12,07,35,5.40
2015,12,12,07,36,5.40
2015,12,12,07,37,5.40
2015,12,12,07,38,5.40
2015,12,12,07,39,5.40
2015,12,12,07,40,5.40
2015,12,12,07,41,5.40
2015,12,12,07,42,5.40
2015,12,12,07,43,5.40
2015,12,12,07,44,5.40
2015,12,12,07,45,5.40
2015,12,12,07,46,5.40
2015,12,12,07,47,5.40
2015,12,12,07,48,5.40
2015,12,12,07,49,5.40
2015,12,12,07,50,5.40
2015,12,12,07,51,5.40
2015,12,12,07,52,5.40
2015,12,12,07,53,5.50
2015,12,12,07,54,5.50
2015,12,12,07,55,5.50
2015,12,12,07,56,5.50
2015,12,12,07,57,5.50
2015,12,12,07,58,5.50
2015,12,12,07,59,5.50
2015,12,12,08,00,5.50
2015,12,12,08,01,5.50
2015,12,12,08,02,5.50
2015,12,12,08,03,5.50
2015,12,12,08,04,5.50
2015,12,12,08,05,5.50
2015,12,12,08,06,5.50
2015,12,12,08,07,5.50
2015,12,12,08,08,5.50
2015,12,12,08,09,5.50
2015,12,12,08,10,5.50
2015,12,12,08,11,5.50
2015,12,12,08,12,5.50
2015,12,12,08,13,5.50
2015,12,12,08,14,5.50
2015,12,12,08,15,5.60
2015,12,12,08,16,5.60
2015,12,12,08,17,5.60
2015,12,12,08,18,5.60
2015,12,12,08,19,5.60
2015,12,12,08,20,5.60
2015,12,12,08,21,5.60
2015,12,12,08,22,5.60
2015,12,12,08,23,5.60
2015,12,12,08,24,5.60
2015,12,12,08,25,5.60
2015,12,12,08,26,5.50
2015,12,12,08,27,5.50
2015,12,12,08,28,5.50
2015,12,12,08,29,5.50
2015,12,12,08,30,5.50
2015,12,12,08,31,5.50
2015,12,12,08,32,5.50
2015,12,12,08,33,5.50
2015,12,12,08,34,5.50
2015,12,12,08,35,5.50
2015,12,12,08,36,5.50
2015,12,12,08,37,5.50
2015,12,12,08,38,5.50
2015,12,12,08,39,5.50
2015,12,12,08,40,5.50
2015,12,12,08,41,5.50
2015,12,12,08,42,5.50
2015,12,12,08,43,5.50
2015,12,12,08,44,5.50
2015,12,12,08,45,5.50
2015,12,12,08,46,5.50
2015,12,12,08,47,5.50
2015,12,12,08,48,5.50
2015,12,12,08,49,5.50
2015,12,12,08,50,5.50
2015,12,12,08,51,5.50
2015,12,12,08,52,5.50
2015,12,12,08,53,5.50
2015,12,12,08,54,5.50
2015,12,12,08,55,5.50
2015,12,12,08,56,5.50
2015,12,12,08,57,5.50
2015,12,12,08,58,5.50
2015,12,12,08,59,5.50
2015,12,12,09,00,5.50
2015,12,12,09,01,5.50
2015,12,12,09,02,5.50
2015,12,12,09,03,5.50
2015,12,12,09,04,5.50
2015,12,12,09,05,5.60
2015,12,12,09,06,5.60
2015,12,12,09,07,5.60
2015,12,12,09,08,5.60
2015,12,12,09,09,5.60
2015,12,12,09,10,5.60
2015,12,12,09,11,5.60
2015,12,12,09,12,5.60
2015,12,12,09,13,5.60
2015,12,12,09,14,5.60
2015,12,12,09,15,5.60
2015,12,12,09,16,5.60
2015,12,12,09,17,5.60
2015,12,12,09,18,5.60
2015,12,12,09,19,5.60
2015,12,12,09,20,5.60
2015,12,12,09,21,5.70
2015,12,12,09,22,5.70
2015,12,12,09,23,5.70
2015,12,12,09,24,5.70
2015,12,12,09,25,5.70
2015,12,12,09,26,5.70
2015,12,12,09,27,5.70
2015,12,12,09,28,5.70
2015,12,12,09,29,5.70
2015,12,12,09,30,5.80
2015,12,12,09,31,5.80
2015,12,12,09,32,5.80
2015,12,12,09,33,5.80
2015,12,12,09,34,5.80
2015,12,12,09,35,5.80
2015,12,12,09,36,5.80
2015,12,12,09,37,5.80
2015,12,12,09,38,5.80
2015,12,12,09,39,5.80
2015,12,12,09,40,5.80
2015,12,12,09,41,5.80
2015,12,12,09,42,5.80
2015,12,12,09,43,5.80
2015,12,12,09,44,5.80
2015,12,12,09,45,5.80
2015,12,12,09,46,5.80
2015,12,12,09,47,5.80
2015,12,12,09,48,5.80
2015,12,12,09,49,5.80
2015,12,12,09,50,5.80
2015,12,12,09,51,5.80
2015,12,12,09,52,5.80
2015,12,12,09,53,5.80
2015,12,12,09,54,5.80
2015,12,12,09,55,5.80
2015,12,12,09,56,5.90
2015,12,12,09,57,5.90
2015,12,12,09,58,6.00
2015,12,12,09,59,6.10
2015,12,12,10,00,6.10
2015,12,12,10,01,6.20
2015,12,12,10,02,6.30
2015,12,12,10,03,6.30
2015,12,12,10,04,6.40
2015,12,12,10,05,6.50
2015,12,12,10,06,6.50
2015,12,12,10,07,6.60
2015,12,12,10,08,6.60
2015,12,12,10,09,6.70
2015,12,12,10,10,6.70
2015,12,12,10,11,6.70
2015,12,12,10,12,6.70
2015,12,12,10,13,6.70
2015,12,12,10,14,6.80
2015,12,12,10,15,6.80
2015,12,12,10,16,6.80
2015,12,12,10,17,6.80
2015,12,12,10,18,6.90
2015,12,12,10,19,6.90
2015,12,12,10,20,6.90
2015,12,12,10,21,7.00
2015,12,12,10,22,7.00
2015,12,12,10,23,7.00
2015,12,12,10,24,7.00
2015,12,12,10,25,7.00
2015,12,12,10,26,7.10
2015,12,12,10,27,7.10
2015,12,12,10,28,7.10
2015,12,12,10,29,7.10
2015,12,12,10,30,7.10
2015,12,12,10,31,7.10
2015,12,12,10,32,7.10
2015,12,12,10,33,7.10
2015,12,12,10,34,7.10
2015,12,12,10,35,7.10
2015,12,12,10,36,7.20
2015,12,12,10,37,7.20
2015,12,12,10,38,7.20
2015,12,12,10,39,7.20
2015,12,12,10,40,7.20
2015,12,12,10,41,7.20
2015,12,12,10,42,7.20
2015,12,12,10,43,7.20
2015,12,12,10,44,7.20
2015,12,12,10,45,7.30
2015,12,12,10,46,7.30
2015,12,12,10,47,7.30
2015,12,12,10,48,7.30
2015,12,12,10,49,7.30
2015,12,12,10,50,7.30
2015,12,12,10,51,7.30
2015,12,12,10,52,7.40
2015,12,12,10,53,7.40
2015,12,12,10,54,7.40
2015,12,12,10,55,7.40
2015,12,12,10,56,7.40
2015,12,12,10,57,7.40
2015,12,12,10,58,7.40
2015,12,12,10,59,7.40
2015,12,12,11,00,7.40
2015,12,12,11,01,7.40
2015,12,12,11,02,7.40
2015,12,12,11,03,7.40
2015,12,12,11,04,7.40
2015,12,12,11,05,7.40
2015,12,12,11,06,7.40
2015,12,12,11,07,7.40
2015,12,12,11,08,7.30
2015,12,12,11,09,7.30
2015,12,12,11,10,7.30
2015,12,12,11,11,7.30
2015,12,12,11,12,7.30
2015,12,12,11,13,7.30
2015,12,12,11,14,7.20
2015,12,12,11,15,7.20
2015,12,12,11,16,7.20
2015,12,12,11,17,7.20
2015,12,12,11,18,7.20
2015,12,12,11,19,7.10
2015,12,12,11,20,7.10
2015,12,12,11,21,7.10
2015,12,12,11,22,7.10
2015,12,12,11,23,7.10
2015,12,12,11,24,7.10
2015,12,12,11,25,7.10
2015,12,12,11,26,7.10
2015,12,12,11,27,7.10
2015,12,12,11,28,7.10
2015,12,12,11,29,7.10
2015,12,12,11,30,7.20
2015,12,12,11,31,7.20
2015,12,12,11,32,7.20
2015,12,12,11,33,7.20
2015,12,12,11,34,7.20
2015,12,12,11,35,7.20
2015,12,12,11,36,7.20
2015,12,12,11,37,7.20
2015,12,12,11,38,7.20
2015,12,12,11,39,7.20
2015,12,12,11,40,7.20
2015,12,12,11,41,7.20
2015,12,12,11,42,7.20
2015,12,12,11,43,7.20
2015,12,12,11,44,7.20
2015,12,12,11,45,7.20
2015,12,12,11,46,7.20
2015,12,12,11,47,7.20
2015,12,12,11,48,7.20
2015,12,12,11,49,7.20
2015,12,12,11,50,7.20
2015,12,12,11,51,7.20
2015,12,12,11,52,7.20
2015,12,12,11,53,7.20
2015,12,12,11,54,7.20
2015,12,12,11,55,7.20
2015,12,12,11,56,7.20
2015,12,12,11,57,7.20
2015,12,12,11,58,7.20
2015,12,12,11,59,7.20
2015,12,12,12,00,7.10
2015,12,12,12,01,7.10
2015,12,12,12,02,7.10
2015,12,12,12,03,7.10
2015,12,12,12,04,7.00
2015,12,12,12,05,7.00
2015,12,12,12,06,6.90
2015,12,12,12,07,6.90
2015,12,12,12,08,6.80
2015,12,12,12,09,6.80
2015,12,12,12,10,6.80
2015,12,12,12,11,6.70
2015,12,12,12,12,6.70
2015,12,12,12,13,6.70
2015,12,12,12,14,6.70
2015,12,12,12,15,6.70
2015,12,12,12,16,6.60
2015,12,12,12,17,6.60
2015,12,12,12,18,6.60
2015,12,12,12,19,6.60
2015,12,12,12,20,6.60
2015,12,12,12,21,6.60
2015,12,12,12,22,6.70
2015,12,12,12,23,6.70
2015,12,12,12,24,6.70
2015,12,12,12,25,6.70
2015,12,12,12,26,6.70
2015,12,12,12,27,6.70
2015,12,12,12,28,6.70
2015,12,12,12,29,6.70
2015,12,12,12,30,6.70
2015,12,12,12,31,6.70
2015,12,12,12,32,6.70
2015,12,12,12,33,6.70
2015,12,12,12,34,6.70
2015,12,12,12,35,6.70
2015,12,12,12,36,6.70
2015,12,12,12,37,6.70
2015,12,12,12,38,6.60
2015,12,12,12,39,6.60
2015,12,12,12,40,6.50
2015,12,12,12,41,6.50
2015,12,12,12,42,6.50
2015,12,12,12,43,6.40
2015,12,12,12,44,6.40
2015,12,12,12,45,6.30
2015,12,12,12,46,6.30
2015,12,12,12,47,6.30
2015,12,12,12,48,6.30
2015,12,12,12,49,6.30
2015,12,12,12,50,6.20
2015,12,12,12,51,6.20
2015,12,12,12,52,6.20
2015,12,12,12,53,6.10
2015,12,12,12,54,6.10
2015,12,12,12,55,6.10
2015,12,12,12,56,6.00
2015,12,12,12,57,6.00
2015,12,12,12,58,5.90
2015,12,12,12,59,5.90
2015,12,12,13,00,5.90
2015,12,12,13,01,5.90
2015,12,12,13,02,5.90
2015,12,12,13,03,5.90
2015,12,12,13,04,5.80
2015,12,12,13,05,5.80
2015,12,12,13,06,5.80
2015,12,12,13,07,5.80
2015,12,12,13,08,5.80
2015,12,12,13,09,5.80
2015,12,12,13,10,5.80
2015,12,12,13,11,5.80
2015,12,12,13,12,5.80
2015,12,12,13,13,5.90
2015,12,12,13,14,5.90
2015,12,12,13,15,5.90
2015,12,12,13,16,5.90
2015,12,12,13,17,5.90
2015,12,12,13,18,5.90
2015,12,12,13,19,5.90
2015,12,12,13,20,5.80
2015,12,12,13,21,5.80
2015,12,12,13,22,5.80
2015,12,12,13,23,5.80
2015,12,12,13,24,5.80
2015,12,12,13,25,5.80
2015,12,12,13,26,5.80
2015,12,12,13,27,5.80
2015,12,12,13,28,5.80
2015,12,12,13,29,5.80
2015,12,12,13,30,5.80
2015,12,12,13,31,5.70
2015,12,12,13,32,5.70
2015,12,12,13,33,5.70
2015,12,12,13,34,5.70
2015,12,12,13,35,5.70
2015,12,12,13,36,5.60
2015,12,12,13,37,5.60
2015,12,12,13,38,5.60
2015,12,12,13,39,5.60
2015,12,12,13,40,5.60
2015,12,12,13,41,5.60
2015,12,12,13,42,5.60
2015,12,12,13,43,5.60
2015,12,12,13,44,5.70
2015,12,12,13,45,5.70
2015,12,12,13,46,5.70
2015,12,12,13,47,5.70
2015,12,12,13,48,5.70
2015,12,12,13,49,5.70
2015,12,12,13,50,5.80
2015,12,12,13,51,5.80
2015,12,12,13,52,5.80
2015,12,12,13,53,5.80
2015,12,12,13,54,5.80
2015,12,12,13,55,5.80
2015,12,12,13,56,5.90
2015,12,12,13,57,5.80
2015,12,12,13,58,5.80
2015,12,12,13,59,5.80
2015,12,12,14,00,5.80
2015,12,12,14,01,5.80
2015,12,12,14,02,5.80
2015,12,12,14,03,5.80
2015,12,12,14,04,5.80
2015,12,12,14,05,5.80
2015,12,12,14,06,5.90
2015,12,12,14,07,5.90
2015,12,12,14,08,6.00
2015,12,12,14,09,6.00
2015,12,12,14,10,6.00
2015,12,12,14,11,6.10
2015,12,12,14,12,6.10
2015,12,12,14,13,6.10
2015,12,12,14,14,6.10
2015,12,12,14,15,6.10
2015,12,12,14,16,6.10
2015,12,12,14,17,6.10
2015,12,12,14,18,6.10
2015,12,12,14,19,6.10
2015,12,12,14,20,6.10
2015,12,12,14,21,6.20
2015,12,12,14,22,6.20
2015,12,12,14,23,6.20
2015,12,12,14,24,6.20
2015,12,12,14,25,6.20
2015,12,12,14,26,6.20
2015,12,12,14,27,6.20
2015,12,12,14,28,6.20
2015,12,12,14,29,6.20
2015,12,12,14,30,6.20
2015,12,12,14,31,6.20
2015,12,12,14,32,6.20
2015,12,12,14,33,6.20
2015,12,12,14,34,6.20
2015,12,12,14,35,6.20
2015,12,12,14,36,6.20
2015,12,12,14,37,6.20
2015,12,12,14,38,6.20
2015,12,12,14,39,6.20
2015,12,12,14,40,6.20
2015,12,12,14,41,6.20
2015,12,12,14,42,6.20
2015,12,12,14,43,6.20
2015,12,12,14,44,6.20
2015,12,12,14,45,6.20
2015,12,12,14,46,6.20
2015,12,12,14,47,6.20
2015,12,12,14,48,6.20
2015,12,12,14,49,6.20
2015,12,12,14,50,6.20
2015,12,12,14,51,6.20
2015,12,12,14,52,6.20
2015,12,12,14,53,6.20
2015,12,12,14,54,6.20
2015,12,12,14,55,6.20
2015,12,12,14,56,6.20
2015,12,12,14,57,6.20
2015,12,12,14,58,6.20
2015,12,12,14,59,6.20
2015,12,12,15,00,6.20
2015,12,12,15,01,6.20
2015,12,12,15,02,6.20
2015,12,12,15,03,6.20
2015,12,12,15,04,6.20
2015,12,12,15,05,6.20
2015,12,12,15,06,6.20
2015,12,12,15,07,6.30
2015,12,12,15,08,6.30
2015,12,12,15,09,6.30
2015,12,12,15,10,6.40
2015,12,12,15,11,6.40
2015,12,12,15,12,6.40
2015,12,12,15,13,6.40
2015,12,12,15,14,6.50
2015,12,12,15,15,6.50
2015,12,12,15,16,6.50
2015,12,12,15,17,6.60
2015,12,12,15,18,6.60
2015,12,12,15,19,6.60
2015,12,12,15,20,6.60
2015,12,12,15,21,6.60
2015,12,12,15,22,6.60
2015,12,12,15,23,6.60
2015,12,12,15,24,6.60
2015,12,12,15,25,6.60
2015,12,12,15,26,6.60
2015,12,12,15,27,6.60
2015,12,12,15,28,6.50
2015,12,12,15,29,6.60
2015,12,12,15,30,6.50
2015,12,12,15,31,6.60
2015,12,12,15,32,6.60
2015,12,12,15,33,6.60
2015,12,12,15,34,6.60
2015,12,12,15,35,6.60
2015,12,12,15,36,6.70
2015,12,12,15,37,6.70
2015,12,12,15,38,6.70
2015,12,12,15,39,6.60
2015,12,12,15,40,6.60
2015,12,12,15,41,6.60
2015,12,12,15,42,6.50
2015,12,12,15,43,6.50
2015,12,12,15,44,6.50
2015,12,12,15,45,6.50
2015,12,12,15,46,6.50
2015,12,12,15,47,6.50
2015,12,12,15,48,6.60
2015,12,12,15,49,6.60
2015,12,12,15,50,6.60
2015,12,12,15,51,6.70
2015,12,12,15,52,6.70
2015,12,12,15,53,6.70
2015,12,12,15,54,6.80
2015,12,12,15,55,6.80
2015,12,12,15,56,6.80
2015,12,12,15,57,6.80
2015,12,12,15,58,6.80
2015,12,12,15,59,6.80
2015,12,12,16,00,6.80
2015,12,12,16,01,6.80
2015,12,12,16,02,6.80
2015,12,12,16,03,6.80
2015,12,12,16,04,6.90
2015,12,12,16,05,6.90
2015,12,12,16,06,6.90
2015,12,12,16,07,7.00
2015,12,12,16,08,7.00
2015,12,12,16,09,7.00
2015,12,12,16,10,7.10
2015,12,12,16,11,7.10
2015,12,12,16,12,7.10
2015,12,12,16,13,7.10
2015,12,12,16,14,7.10
2015,12,12,16,15,7.10
2015,12,12,16,16,7.10
2015,12,12,16,17,7.20
2015,12,12,16,18,7.20
2015,12,12,16,19,7.20
2015,12,12,16,20,7.20
2015,12,12,16,21,7.20
2015,12,12,16,22,7.20
2015,12,12,16,23,7.20
2015,12,12,16,24,7.20
2015,12,12,16,25,7.20
2015,12,12,16,26,7.20
2015,12,12,16,27,7.20
2015,12,12,16,28,7.20
2015,12,12,16,29,7.30
2015,12,12,16,30,7.30
2015,12,12,16,31,7.30
2015,12,12,16,32,7.30
2015,12,12,16,33,7.30
2015,12,12,16,34,7.30
2015,12,12,16,35,7.30
2015,12,12,16,36,7.30
2015,12,12,16,37,7.30
2015,12,12,16,38,7.30
2015,12,12,16,39,7.40
2015,12,12,16,40,7.40
2015,12,12,16,41,7.40
2015,12,12,16,42,7.40
2015,12,12,16,43,7.40
2015,12,12,16,44,7.40
2015,12,12,16,45,7.30
2015,12,12,16,46,7.30
2015,12,12,16,47,7.30
2015,12,12,16,48,7.30
2015,12,12,16,49,7.30
2015,12,12,16,50,7.30
2015,12,12,16,51,7.20
2015,12,12,16,52,7.20
2015,12,12,16,53,7.20
2015,12,12,16,54,7.20
2015,12,12,16,55,7.10
2015,12,12,16,56,7.10
2015,12,12,16,57,7.10
2015,12,12,16,58,7.10
2015,12,12,16,59,7.10
2015,12,12,17,00,7.00
2015,12,12,17,01,7.00
2015,12,12,17,02,7.00
2015,12,12,17,03,7.00
2015,12,12,17,04,7.00
2015,12,12,17,05,7.10
2015,12,12,17,06,7.10
2015,12,12,17,07,7.10
2015,12,12,17,08,7.10
2015,12,12,17,09,7.10
2015,12,12,17,10,7.10
2015,12,12,17,11,7.10
2015,12,12,17,12,7.10
2015,12,12,17,13,7.10
2015,12,12,17,14,7.10
2015,12,12,17,15,7.10
2015,12,12,17,16,7.10
2015,12,12,17,17,7.10
2015,12,12,17,18,7.10
2015,12,12,17,19,7.10
2015,12,12,17,20,7.10
2015,12,12,17,21,7.10
2015,12,12,17,22,7.10
2015,12,12,17,23,7.10
2015,12,12,17,24,7.10
2015,12,12,17,25,7.10
2015,12,12,17,26,7.10
2015,12,12,17,27,7.10
2015,12,12,17,28,7.10
2015,12,12,17,29,7.20
2015,12,12,17,30,7.20
2015,12,12,17,31,7.20
2015,12,12,17,32,7.20
2015,12,12,17,33,7.20
2015,12,12,17,34,7.20
2015,12,12,17,35,7.20
2015,12,12,17,36,7.20
2015,12,12,17,37,7.20
2015,12,12,17,38,7.30
2015,12,12,17,39,7.30
2015,12,12,17,40,7.30
2015,12,12,17,41,7.30
2015,12,12,17,42,7.30
2015,12,12,17,43,7.30
2015,12,12,17,44,7.30
2015,12,12,17,45,7.30
2015,12,12,17,46,7.30
2015,12,12,17,47,7.30
2015,12,12,17,48,7.30
2015,12,12,17,49,7.30
2015,12,12,17,50,7.30
2015,12,12,17,51,7.30
2015,12,12,17,52,7.30
2015,12,12,17,53,7.20
2015,12,12,17,54,7.20
2015,12,12,17,55,7.20
2015,12,12,17,56,7.20
2015,12,12,17,57,7.20
2015,12,12,17,58,7.20
2015,12,12,17,59,7.20
2015,12,12,18,00,7.20
2015,12,12,18,01,7.20
2015,12,12,18,02,7.20
2015,12,12,18,03,7.20
2015,12,12,18,04,7.20
2015,12,12,18,05,7.20
2015,12,12,18,06,7.20